Regional Weather Roundup
Issued by NWS

Home | Current Version | Previous Version | Graphics & Text | Print | Product List | Glossary On
Versions: 1 2 3 4 5 6 7 8 9 10 11 12 13 14 15 16 17 18 19 20 21 22 23 24 25 26 27 28 29 30 31 32 33 34 35 36 37 38 39 40 41 42 43 44 45 46 47 48 49 50
000
ASUS45 KTFX 231819
RWRMT
MONTANA HOURLY WEATHER ROUNDUP
NATIONAL WEATHER SERVICE GREAT FALLS MT
1219 PM MDT TUE SEP 23 2014

NOTE: "FAIR" INDICATES FEW OR NO CLOUDS BELOW 12000 FEET WITH NO
SIGNIFICANT WEATHER AND/OR OBSTRUCTIONS TO VISIBILITY.

* THESE STATIONS ARE NOT UNDER NWS QUALITY CONTROL. THEY DO NOT
   REPORT WEATHER SUCH AS PRECIPITATION OR FOG.

MTZ001>007-043-231900-
WEST OF THE DIVIDE
CITY           SKY/WX    TMP DP  RH WIND       PRES   REMARKS
KALISPELL      PTCLDY    70  54  57 CALM      30.00F
MISSOULA       PTCLDY    70  45  41 VRB6      30.03F
BUTTE          PTCLDY    70  45  41 N5        30.16F
MULLAN PASS    PTSUNNY   61  46  58 S8        30.11F
* ESSEX        N/A       65  49  56 NE2        N/A
* LINCOLN      N/A       63  41  45 SW3        N/A
* POLSON       N/A       72  50  46 S2         N/A
* RONAN APT    PTCLDY    73  48  41 N/A        N/A
* SEELEY LAKE  N/A       69  44  41 W4         N/A
* THOMP F APT  PTCLDY    57  51  80 E4         N/A
$$

MTZ008-052>055-231900-
SOUTHWEST MONTANA
CITY           SKY/WX    TMP DP  RH WIND       PRES   REMARKS
BOZEMAN        SUNNY     68  48  49 CALM      30.11F
DILLON         PTCLDY    66  48  52 SW6       30.14F
W YELLOWSTONE  CLOUDY    59  48  67 S12G17    30.28F
* THREE FORKS  PTCLDY    68  27  21 N/A        N/A
* BOULDER HILL N/A       64  44  48 S9G14      N/A
* MONIDA PASS  N/A       56  51  83 SE17G23    N/A
* RAYNOLDS PAS N/A       58  40  51 SE18       N/A
* WHITEHALL    N/A       70  51  51 SW5G11     N/A
* WISE RIVER   N/A       55  47  75 N3         N/A
$$

MTZ009>010-012-014-046-048-049-054-231900-
EAST SLOPES AND CENTRAL MONTANA
CITY           SKY/WX    TMP DP  RH WIND       PRES   REMARKS
CUT BANK       PTSUNNY   73  46  38 W17       30.00F
GREAT FALLS    PTCLDY    75  46  36 SW10      30.00F
HELENA         PTCLDY    70  50  49 CALM      30.06F
MALMSTROM AFB  PTCLDY    75  46  36 SW13      30.02F
* CONRAD       PTSUNNY   73  52  48 W9         N/A
* EAST GLACIER N/A       68  43  40 W12G17     N/A
* MONARCH      N/A       68  42  39 SW9        N/A
* PENDROY      N/A       66  51  59 NW6        N/A
* ROGERS PASS  N/A       67  42  40 SE9G15     N/A
* SAINT MARY   N/A       65  52  63 S7G13      N/A
* SWEET GRASS  N/A       67  45  45 NW9        N/A
* WHITE SULPH  N/A       71  47  43 S7         N/A
$$

MTZ011-013-016-021-035-040-045-047-050-051-231900-
NORTH CENTRAL MONTANA
CITY           SKY/WX    TMP DP  RH WIND       PRES   REMARKS
HAVRE          SUNNY     75  48  39 SW21      29.92S
LEWISTOWN      SUNNY     77  45  32 NW7       30.03S
* CHINOOK      SUNNY     79  48  34 W14G22    29.90S
* FORT BENTON  SUNNY     79  48  34 S8        29.97F
* CHESTER      N/A       76  43  31 NW15G24    N/A
* DENTON       N/A       79  46  31 NW6G12     N/A
* GEYSER       N/A       75  47  37 W13G21     N/A
* JUDITH GAP   N/A       74  45  36 N8         N/A
* LOMA         N/A       76  50  40 SW11G16    N/A
$$

MTZ017>020-022>027-061-062-231900-
NORTHEAST MONTANA
CITY           SKY/WX    TMP DP  RH WIND       PRES   REMARKS
GLASGOW        SUNNY     72  54  53 SW5       29.87S
GLENDIVE       SUNNY     75  55  50 S6        29.89S
JORDAN         SUNNY     81  50  34 NW12      29.89S
SIDNEY         SUNNY     75  55  50 S5        29.87S
WOLF POINT     SUNNY     73  54  51 VRB6      29.86F
* BEAVER HILL  N/A       73  54  51 SW6        N/A
* CIRCLE       N/A       72  56  57 SW2        N/A
* LINDSAY DVD  N/A       76  49  39 W8G13      N/A
* NAVAJO       N/A       79  53  41 E2G8       N/A
$$

MTZ028>042-056>058-231900-
SOUTHCENTRAL AND SOUTHEAST MONTANA
CITY           SKY/WX    TMP DP  RH WIND       PRES   REMARKS
BAKER          SUNNY     77  54  45 W7        29.91R
BILLINGS       SUNNY     79  48  34 SW7       30.01S
LIVINGSTON     SUNNY     75  45  34 SW17G24   30.09S
MILES CITY     SUNNY     77  52  42 W7        29.90F
* LAUREL APT   SUNNY     81  45  28 W8         N/A
* ROUNDUP APT  SUNNY     79  52  39 N/A        N/A
* ALZADA       N/A       76  53  45 SW9        N/A
* HYSHAM       N/A       73  49  43 W14        N/A
* LAME DEER    N/A       71  49  46 NW9G14     N/A
* REED POINT   N/A       77  48  36 W14G21     N/A
* ROSCOE HILL  N/A       75  37  25 NE2        N/A
$$

REGIONAL REPORTS...DAKOTAS
CITY           SKY/WX    TMP DP  RH WIND       PRES   REMARKS
WILLISTON      SUNNY     73  54  51 VRB3      29.86S
DICKINSON      SUNNY     73  57  57 SE9       29.87S
BEACH          N/A       73  55  53 W7        29.89S
CROSBY         SUNNY     75  55  50 S6        29.85F
TIOGA          SUNNY     75  55  50 S12       29.89F
WATFORD CITY   SUNNY     77  54  45 S6        29.84S
BISMARCK       PTCLDY    70  57  64 SE16      29.93S
GRAND FORKS    SUNNY     73  57  57 S15       30.01S
FARGO          PTSUNNY   72  55  55 S9G20     30.05R
BUFFALO SD     PTCLDY    81  54  39 W8        29.84S
RAPID CITY     PTCLDY    75  55  50 VRB5      29.94F
$$

REGIONAL REPORTS...WYOMING/IDAHO/WASHINGTON
CITY           SKY/WX    TMP DP  RH WIND       PRES   REMARKS
GILLETTE       PTCLDY    75  46  36 NW13G25   30.01F
SHERIDAN       SUNNY     79  48  34 N16G22    30.01F
CODY           SUNNY     75  45  34 W9        30.11S
YELLOWSTONE LA SUNNY     54  46  74 VRB3      30.37S
SALMON         PTCLDY    66  50  56 CALM      30.09F
MULLAN PASS    PTSUNNY   61  46  58 S8        30.11S
SAND POINT     PTSUNNY   68  54  61 CALM      29.96S
SPOKANE        PTSUNNY   66  55  68 E7        29.94F
$$

REGIONAL REPORTS...ALBERTA
CITY           SKY/WX    TMP DP  RH WIND       PRES   REMARKS
CALGARY        PTSUNNY   57  50  78 N5        29.99F
LETHBRIDGE     PTSUNNY   64  54  70 NW16      29.97F
MEDICINE HAT   PTSUNNY   72  48  43 W7        29.89R
EDMONTON       PTSUNNY   66  50  56 NW7       29.91S
WATERTON GATE  N/A       68  45  44 SW9        N/A
CARDSTON       N/A       68  50  53 W7         N/A
MILK RIVER     N/A       72  48  43 NW8        N/A
$$

REGIONAL REPORTS...SASKATCHEWAN
CITY           SKY/WX    TMP DP  RH WIND       PRES   REMARKS
SWIFT CURRENT  PTCLDY    73  48  41 W16       29.83S
MOOSE JAW      SUNNY     75  54  48 W6        29.79F
REGINA         SUNNY     73  54  51 S5        29.80F
VAL MARIE      N/A       73  54  51 W7         N/A
ASSINIBOIA     N/A       75  46  36 SW6        N/A
CORONACH       N/A       81  50  34 W7         N/A

$$




USA.gov is the U.S. government's official web portal to all federal, state and local government web resources and services.